APRIZESAT 3

Last updated on Mon Sep 21 2026 00:03:17 GMT+0000 (Coordinated Universal Time)

1 35686U 09041F 26263.38897776 .00001586 00000+0 14008-3 0 9991 2 35686 98.2191 61.2676 0062748 112.3577 248.4309 14.96467373930610
UTC large
Height (km)
Speed (km/s)
/
Latitude / Longitude
Inclination (degrees)
Orbital Period (minutes)
Azimuth
Elevation
Range (km)
Doppler Factor

Next 0 passes for location: London (51.5072 / 0.1276)

No passes found over London.
APRIZESAT 3